Terminal Aerodrome Forecast
Issued by NWS North Platte, NE

Home | Current Version | Previous Version | Text Only | Print | Product List | Glossary On
Versions: 1 2 3 4 5 6 7 8 9 10 11 12
000
FTUS43 KLBF 011100
TAFVTN
TAF
KVTN 011132Z 0112/0212 VRB03KT P6SM SKC
      TEMPO 0112/0113 5SM BR
     FM011600 20006KT P6SM FEW150 PROB30 0123/0203 3SM +TSRA
      OVC035CB
     FM020300 18008KT P6SM BKN150=

USA.gov is the U.S. government's official web portal to all federal, state and local government web resources and services.